sat.trackr.live / text

‹ back to catalog

STARLINK-31372

NORAD 58939 · 2024-027J

PAYLOAD ACTIVE UNKNOWN

§ Identity

Operator
Country
US
Launch date
2024-02-10
Launch site
AFWTR
Launch vehicle
Mass (kg)
RCS (m²)

Purposes: comms

External: N2YO · Heavens-Above · Gunter

§ Orbital elements

Epoch: 2026-05-25T03:53:10.648320Z

Period
94.11 min
Inclination
53.1619°
Eccentricity
0.0001138
Mean motion
15.30195053 rev/d
Perigee alt
474.4 km
Apogee alt
476.0 km
Semi-major
6,853.4 km
B*
5.6333e-5
RAAN
314.6245°
Arg perigee
79.2033°
Mean anomaly
280.9095°
Rev number
12,903

§ Raw data

STARLINK-313721 58939U 24027J   26145.16192880  .00001309  00000+0  56333-4 0  99982 58939  53.1619 314.6245 0001138  79.2033 280.9095 15.30195053129033

JSON: /api/v1/satellites/58939 · /tle

For live sub-satellite position, see the globe view (requires WebGL).

§ Visibility from observer

Set your observer location to see the next 7 days of passes ≥ 10°. The values pass through the URL so the page stays shareable.

No JS? Fill the form by hand. The geolocation button needs JavaScript.